Location: Acton
(51.4942°N, 0.2232°W)
Time: 10:00:30
(UTC+00:00)

Okean 1-7 Rocket - Visible Passes

Search period start: 17 January 2021 00:00
Search period end: 27 January 2021 00:00
Orbit: 617 x 648 km, 82.5° (Epoch: 16 January)

Date Brightness Start Highest point End Pass type
(mag) Time Alt. Az. Time Alt. Az. Time Alt. Az.
17 Jan 6.7 03:55:55 10° NE 03:57:11 11° ENE 03:58:28 10° ENE visible
17 Jan 3.9 05:31:44 10° N 05:36:18 68° ENE 05:40:48 10° SSE visible
17 Jan 5.2 07:11:04 10° NW 07:13:54 16° W 07:16:44 10° WSW visible
17 Jan 4.2 18:10:57 10° SSE 18:15:03 34° E 18:16:13 29° ENE visible
17 Jan 5.3 19:49:09 10° SW 19:53:13 32° WNW 19:53:46 31° NW visible
18 Jan 6.2 04:16:19 11° NNE 04:19:19 18° ENE 04:22:30 10° ESE visible
18 Jan 3.5 05:53:48 12° NNW 05:57:58 66° W 06:02:27 10° S visible
18 Jan 3.6 18:32:05 10° S 18:36:34 63° E 18:39:07 25° NNE visible
18 Jan 6.2 20:11:56 10° WSW 20:15:11 19° WNW 20:16:39 17° NW visible
19 Jan 5.4 04:38:34 17° NNE 04:41:17 31° ENE 04:45:19 10° SE visible
19 Jan 4.2 06:16:03 14° NNW 06:19:29 35° W 06:23:36 10° SSW visible
19 Jan 5.2 17:17:53 10° ESE 17:20:38 16° E 17:23:24 10° NE visible
19 Jan 3.8 18:53:41 10° SSW 18:58:12 71° WNW 19:01:55 16° N visible
19 Jan 6.7 20:35:49 10° WNW 20:37:18 11° WNW 20:38:47 10° NW visible
20 Jan 4.3 05:00:58 28° N 05:03:08 55° ENE 05:07:34 10° SSE visible
20 Jan 4.9 06:38:28 14° NW 06:40:53 20° W 06:44:10 10° SW visible
20 Jan 4.5 17:38:06 10° SSE 17:41:59 28° E 17:45:52 10° NNE visible
20 Jan 5.0 19:15:44 10° SW 19:19:59 39° WNW 19:24:19 10° N visible
21 Jan 6.4 03:46:01 15° ENE 03:46:01 15° ENE 03:48:43 10° E visible
21 Jan 3.5 05:23:31 47° NNW 05:24:50 81° W 05:29:21 10° S visible
21 Jan 5.5 07:01:02 10° WNW 07:02:09 11° W 07:03:26 10° W visible
21 Jan 3.8 17:59:04 10° S 18:03:28 51° E 18:07:54 10° NNE visible
21 Jan 5.9 19:38:18 10° WSW 19:41:55 23° WNW 19:45:34 10° NNW visible
22 Jan 5.8 04:08:42 25° E 04:08:42 25° E 04:11:49 10° SE visible
22 Jan 3.9 05:46:13 43° W 05:46:24 43° W 05:50:40 10° SSW visible
22 Jan 3.6 18:20:30 10° S 18:25:03 87° W 18:29:41 10° N visible
22 Jan 6.6 20:01:38 10° W 20:03:58 14° WNW 20:06:20 10° NNW visible
23 Jan 5.2 04:31:31 32° ESE 04:31:31 32° ESE 04:34:15 10° SSE visible
23 Jan 4.9 06:09:03 22° WSW 06:09:03 22° WSW 06:11:28 10° SW visible
23 Jan 4.8 17:05:22 10° SE 17:08:56 23° E 17:12:31 10° NE visible
23 Jan 4.6 18:42:23 10° SSW 18:46:48 47° WNW 18:51:15 10° N visible
24 Jan 5.3 04:54:26 24° SSE 04:54:26 24° SSE 04:56:11 10° SSE visible
24 Jan 4.1 17:26:06 10° SSE 17:30:22 41° E 17:34:40 10° NNE visible
24 Jan 5.7 19:04:46 10° SW 19:08:40 27° WNW 19:12:36 10° N visible
25 Jan 6.0 05:17:24 12° S 05:17:24 12° S 05:17:41 10° S visible
25 Jan 3.6 17:47:22 10° S 17:51:56 76° E 17:56:31 10° NNE visible
25 Jan 6.5 19:27:46 10° WSW 19:30:41 16° WNW 19:33:36 10° NNW visible
26 Jan 4.3 18:09:07 10° SSW 18:13:37 59° WNW 18:18:10 10° N visible
